Qianfan 05-12

operational
NORAD ID: 63170 Int'l Des: 2025-046 Owner: YUANX Country: CN Constellation: qianfan
LEOCIRCULARPOLAR

关于 Qianfan 05-12

正在加载描述...

实时位置

正在加载3D地球...

即将过境

高度历史

Altitude vs Time

uPlot chart will show altitude changes over time

两行轨道根数

1 63170U 25046M 25304.63056977 -.00000019 00000-0 -47879-4 0 9992
2 63170 88.9763 324.4109 0014109 243.7305 116.2396 13.50987292 41719
Epoch: Oct 31, 2025 • Age: 7 hours

当前状态

高度 1091.5 km
速度 7.31 km/s
星下点 71.79°N, 51.98°W
发射日期 Mar 11, 2025
运行时间 0.6 years
类型 internet

技术详情

分类 Payload
质量 267.00 kg
干质量 267.00 kg
总质量 267.00 kg
长度 0.30 m
直径 3.00 m
跨度 10.00 m
形状 Box+pan
制造商 GESIH
平台类型 Qianfan
阶段状态 In Orbit
所有者/国家 YUANX/CN

大型星座

Loading constellations...